Montana Department of Transportation

Main Content

Accidents and Incidents Report

Hourly Weather Roundup

ASUS45 KTFX 250219
RWRMT 
MONTANA HOURLY WEATHER ROUNDUP
NATIONAL WEATHER SERVICE GREAT FALLS MT
819 PM MDT FRI OCT 24 2014

NOTE: "FAIR" INDICATES FEW OR NO CLOUDS BELOW 12000 FEET WITH NO
SIGNIFICANT WEATHER AND/OR OBSTRUCTIONS TO VISIBILITY.

* THESE STATIONS ARE NOT UNDER NWS QUALITY CONTROL. THEY DO NOT
   REPORT WEATHER SUCH AS PRECIPITATION OR FOG.

MTZ001.007-043-250300-
WEST OF THE DIVIDE
CITY           SKY/WX    TMP DP  RH WIND       PRES   REMARKS
KALISPELL      CLOUDY    43  39  86 CALM      30.07F 
MISSOULA       LGT RAIN  46  46 100 CALM      30.10S 
BUTTE          CLOUDY    45  43  93 SE6       30.11S 
MULLAN PASS    LGT RAIN  36  36 100 SE10      30.06F WCI  29 
* ESSEX        N/A       41  39  93 SE1        N/A   
* LINCOLN      N/A       45  39  80 S4         N/A   
* LOOKOUT PASS N/A       42  39  89 S9         N/A   
* POLSON       N/A       45  38  77 N/A        N/A   
* RONAN APT    CLOUDY    46  39  77 N/A        N/A   
* SEELEY LAKE  N/A       45  40  83 N/A        N/A   
* THOMP F APT  CLOUDY    50  23  35 NE4        N/A   
--------------------------------

MTZ008-052.055-250300-
SOUTHWEST MONTANA
CITY           SKY/WX    TMP DP  RH WIND       PRES   REMARKS
BOZEMAN        MOCLDY    45  41  86 SE3       30.09F 
DILLON         PTCLDY    45  41  86 CALM      30.09S 
W YELLOWSTONE  CLEAR     45  28  51 E6        30.17S 
* THREE FORKS  CLOUDY    46  46 100 N/A        N/A   
* BOULDER HILL N/A       45  38  77 SW1        N/A   
* MONIDA PASS  N/A       49  26  41 S11        N/A   
* RAYNOLDS PAS N/A       50  33  52 SE13G19    N/A   
* WHITEHALL    N/A       48  44  86 E3         N/A   
* WISE RIVER   N/A       43  40  89 W5         N/A   
--------------------------------

MTZ009.010-012-014-046-048-049-054-250300-
EAST SLOPES AND CENTRAL MONTANA
CITY           SKY/WX    TMP DP  RH WIND       PRES   REMARKS
CUT BANK       CLOUDY    46  30  54 W10       30.05F 
GREAT FALLS    CLOUDY    46  37  71 SW6       30.07R 
HELENA         CLOUDY    50  43  77 CALM      30.08S 
MALMSTROM AFB  CLOUDY    52  36  55 N3        30.09R 
* CONRAD       CLOUDY    48  37  66 VRB6       N/A   
* EAST GLACIER N/A       43  30  60 W11G21     N/A   
* MONARCH      N/A       46  32  58 SW4        N/A   
* PENDROY      N/A       42  32  68 W4         N/A   
* SAINT MARY   N/A       44  30  58 W5G20      N/A   
* SWEET GRASS  N/A       46  28  50 SW3        N/A   
* WHITE SULPH  N/A       48  38  68 S3G14      N/A   
--------------------------------

MTZ011-013-016-021-035-040-045-047-050-051-250300-
NORTH CENTRAL MONTANA
CITY           SKY/WX    TMP DP  RH WIND       PRES   REMARKS
HAVRE          MOCLDY    48  30  50 W7        30.06R 
LEWISTOWN      CLOUDY    50  37  61 CALM      30.10R 
* CHINOOK      MOCLDY    45  30  56 SW5       30.06R 
* FORT BENTON  CLOUDY    52  34  50 CALM      30.08R 
* CHESTER      N/A       48  29  48 NW2        N/A   
* DENTON       N/A       51  33  50 NE1G6      N/A   
* JUDITH GAP   N/A       49  40  71 NW2        N/A   
* LOMA         N/A       51  34  52 S2         N/A   
--------------------------------

MTZ017.020-022.027-061-062-250300-
NORTHEAST MONTANA
CITY           SKY/WX    TMP DP  RH WIND       PRES   REMARKS
GLASGOW        PTCLDY    45  28  51 SW9       30.04R 
GLENDIVE       MOCLDY    45  30  56 W6        30.08R 
JORDAN         PTCLDY    45  32  60 W3        30.07R 
SIDNEY         PTCLDY    46  28  50 W7        30.06R 
WOLF POINT     CLEAR     43  28  56 NW5       30.05R 
* BEAVER HILL  N/A       51  28  41 W6         N/A   
* CIRCLE       N/A       48  31  52 N/A        N/A   
* LINDSAY DVD  N/A       47  28  48 NW9        N/A   
* NAVAJO       N/A       45  26  47 W9         N/A   
--------------------------------

MTZ028.042-056.058-250300-
SOUTHCENTRAL AND SOUTHEAST MONTANA
CITY           SKY/WX    TMP DP  RH WIND       PRES   REMARKS
BAKER          MOCLDY    46  28  50 W9        30.09R 
BILLINGS       MOCLDY    54  36  51 E6        30.09S 
LIVINGSTONCLOUDY    52  39  61 SW5       30.08S 
MILES CITY     CLOUDY    52  34  50 SW9       30.08R 
* LAUREL APT   MOCLDY    52  34  50 N/A        N/A   
* ROUNDUP APT  MOCLDY    52  36  55 N/A        N/A   
* ALZADA       N/A       55  28  35 N6         N/A   
* HYSHAM       N/A       53  32  45 SE8        N/A   
* LAME DEER    N/A       49  29  46 E4         N/A   
* REED POINT   N/A       49  41  74 N/A        N/A   
* ROSCOE HILL  N/A       46  33  61 S4         N/A   
--------------------------------

REGIONAL REPORTS...DAKOTAS
CITY           SKY/WX    TMP DP  RH WIND       PRES   REMARKS
WILLISTON      CLEAR     45  27  49 W8        30.01R 
DICKINSON      MOCLDY    43  30  60 W8        30.04R 
BEACH          N/A       45  30  56 SW3       30.08R 
CROSBY         CLEAR     45  28  51 W12       29.98R 
TIOGA          CLEAR     37  28  70 W9        30.02R WCI  30 
BISMARCK       PTCLDY    52  32  47 W8        30.01R 
GRAND FORKS    PTCLDY    54  34  47 W9        29.84R 
FARGO          CLEAR     57  34  42 W10       29.88R 
BUFFALO SD     CLOUDY    54  28  37 W6        30.03R 
RAPID CITY     CLEAR     52  36  55 N10       30.09R 
--------------------------------

REGIONAL REPORTS...WYOMING/IDAHO/WASHINGTON
CITY           SKY/WX    TMP DP  RH WIND       PRES   REMARKS
GILLETTE       PTCLDY    50  30  46 NE7       30.11R 
SHERIDAN       PTCLDY    43  32  65 S5        30.11R 
CODY           PTCLDY    48  36  63 NE5       30.11R 
YELLOWSTONE LA CLEAR     36  25  64 NW3       30.27R 
SALMON         PTCLDY    43  39  86 CALM      30.08R 
MULLAN PASS    LGT RAIN  36  36 100 SE10      30.06S WCI  29 
SAND POINT     CLOUDY    48  41  77 N8        30.04F 
SPOKANE        CLOUDY    50  43  77 NE6       30.01S 
--------------------------------

REGIONAL REPORTS...ALBERTA
CITY           SKY/WX    TMP DP  RH WIND       PRES   REMARKS
CALGARY        MOCLDY    45  14  28 W13G22    29.99R 
LETHBRIDGE     CLOUDY    48  25  41 W14G23    30.03R 
MEDICINE HAT   MOCLDY    43  25  49 S6        30.01R 
EDMONTON       PTCLDY    32  19  59 S8        29.93R WCI  25 
WATERTON GATE  N/A       43  28  56 SW15       N/A   
CARDSTON       N/A       45  28  51 E3         N/A   
MILK RIVER     N/A       41  28  60 NE3        N/A   
--------------------------------

REGIONAL REPORTS...SASKATCHEWAN
CITY           SKY/WX    TMP DP  RH WIND       PRES   REMARKS
SWIFT CURRENT  CLEAR     36  28  73 SW8       29.99R WCI  30 
REGINA         FAIR      39  32  76 W10       29.95R WCI  32 
VAL MARIE      N/A       34  27  76 NW3        N/A   
ASSINIBOIA     N/A       36  27  70 W6         N/A   WCI  31 
CORONACH       N/A       37  25  62 W6         N/A   WCI  32 

--------------------------------